Starlink 36160

operational
NORAD ID: 66936 Int'l Des: 2025-286 Owner: SPXS Country: US Constellation: starlink
LEOCIRCULAR

About Starlink 36160

Description loading...

Live Position

Loading 3D Globe...

Upcoming Passes

Altitude History

Altitude vs Time

uPlot chart will show altitude changes over time

Two-Line Element Set

1 66936U 25286M 25347.25002315 -.01248871 48194-3 -28074-2 0 9997
2 66936 53.1573 48.1243 0000862 86.0793 92.5130 15.97064683 2075
Epoch: Dec 13, 2025 • Age: 20 hours

Current Status

Altitude 292.8 km
Velocity 7.73 km/s
Sub-Earth Point -16.87°S, 129.55°E
Launch Date Dec 7, 2025
Age 6 days
Type internet

Technical Details

Classification Payload
Mass 575.00 kg
Dry Mass 530.00 kg
Total Mass 575.00 kg
Length 0.30 m
Diameter 4.10 m
Span 29.00 m
Shape Box + pan
Manufacturer SPXS
Bus Type Starlink V2MO
Phase Status In Orbit
Owner/State SPXS/US

Large Constellations

Loading constellations...